Probability
0 0 0 0 0 0 0 0 0 0 0 0 0 0 0 0 1 4 11 19 28 39 51 62 68 71 73 71 65 65 77 92 98 98 98 97 93 86 82 85 81 72 65 63
0 0 0 0 0 0 0 0 0 0 0 0 0 0 0 0 0 2 9 18 27 38 50 61 69 71 73 74 74 78 86 93 96 96 96 95 92 88 86 86 80 64 49 43
0 0 0 0 0 0 0 0 0 0 0 0 0 0 0 0 0 1 4 11 23 38 49 57 63 63 63 68 75 81 85 86 85 86 86 85 83 81 80 77 68 50 32 25
0 0 0 0 0 0 0 0 0 0 0 0 0 0 0 0 0 0 2 6 19 37 49 51 48 43 41 47 56 63 68 69 69 68 67 64 60 57 56 53 48 38 28 24
0 0 0 0 0 0 0 0 0 0 0 0 0 0 0 1 1 1 3 9 22 36 42 39 28 20 19 24 30 38 46 49 49 47 43 39 34 30 28 27 28 28 25 24
0 0 0 0 0 0 0 0 0 0 0 0 0 1 4 8 9 6 5 13 25 30 27 19 11 6 6 8 11 16 24 27 26 23 21 19 16 12 11 11 12 12 13 13
0 0 0 0 0 0 0 0 0 0 0 0 0 2 11 21 23 16 11 13 18 17 11 6 2 1 1 1 2 4 7 9 8 7 6 5 5 4 4 4 3 2 3 3
0 0 0 0 0 0 0 0 0 0 0 0 0 3 14 29 34 25 14 9 8 7 3 1 0 0 0 0 0 0 0 1 1 0 0 0 0 0 1 1 0 0 0 0
0 0 0 0 0 0 0 0 0 0 0 0 0 3 15 33 37 24 11 5 4 2 0 0 0 0 0 0 0 0 0 0 0 0 0 0 0 0 0 0 0 0 0 0
0 0 0 0 0 0 0 0 0 0 0 0 0 3 18 33 32 15 5 3 2 1 0 0 0 0 0 0 0 0 0 0 0 0 0 0 0 0 0 0 0 0 0 0
0 0 0 0 0 0 0 0 0 0 0 0 0 3 14 26 22 8 1 1 1 0 0 0 0 0 0 0 0 0 0 0 0 0 0 0 0 0 0 0 0 0 0 0
0 0 0 0 0 0 0 0 0 0 0 0 0 2 9 16 14 5 0 0 0 0 0 0 0 0 0 0 0 0 0 0 0 0 0 0 0 0 0 0 0 0 0 0
0 0 0 0 0 0 0 0 0 0 0 0 1 3 8 12 10 4 1 1 0 0 0 0 0 0 0 0 0 0 0 0 0 0 0 0 0 0 0 0 0 0 0 0
0 0 0 0 0 0 0 0 0 0 0 0 1 4 7 10 8 4 2 2 0 0 0 0 0 0 0 0 0 0 0 0 0 0 0 0 0 0 0 0 0 0 0 0
3 1 0 0 0 0 0 0 0 0 0 0 1 2 4 6 7 5 2 1 0 0 0 0 0 0 0 0 0 0 0 0 0 0 0 0 0 0 0 0 0 0 0 0
7 4 1 0 0 0 0 0 0 0 0 0 0 1 1 3 4 3 1 0 0 0 0 0 0 0 0 0 0 0 0 0 0 0 0 0 0 0 0 0 0 0 0 0
12 14 8 1 0 0 0 0 0 0 0 0 0 0 0 1 1 1 0 0 0 0 0 0 0 0 0 0 0 0 0 0 0 0 0 0 0 0 0 0 0 0 0 0
15 21 15 3 0 0 0 0 0 0 0 0 0 0 0 0 0 0 0 0 0 0 0 0 0 0 0 0 0 0 0 0 0 0 0 0 0 0 0 0 0 0 0 0
12 17 15 5 2 2 1 0 0 0 0 0 0 0 0 0 0 0 0 0 0 0 0 0 0 0 0 0 0 0 0 0 0 0 0 0 0 0 0 0 0 0 0 0
4 9 9 5 4 3 2 0 0 0 0 0 0 0 0 0 0 0 0 0 0 0 0 0 0 0 0 0 0 0 0 0 0 0 0 0 0 0 0 0 0 0 0 0
1 3 5 5 4 3 1 0 0 0 0 0 0 0 0 0 0 0 0 0 0 0 0 0 0 0 0 0 0 0 0 0 0 0 0 0 0 0 0 0 0 0 0 0
0 2 6 9 8 3 0 0 1 2 1 0 0 0 0 0 0 0 0 0 0 0 0 0 0 0 0 0 0 0 0 0 0 0 0 0 0 0 0 0 0 0 0 0
0 2 7 11 10 4 1 1 1 2 1 0 0 0 0 0 0 0 0 0 0 0 0 0 0 0 0 0 0 0 0 0 0 0 0 0 0 0 0 0 0 0 0 0
0 1 3 5 4 2 0 0 1 1 0 0 0 0 0 0 0 0 0 0 0 0 0 0 0 0 0 0 0 0 0 0 0 0 0 0 0 0 0 0 0 0 0 0
0 0 0 0 0 0 0 0 0 0 0 0 0 0 0 0 0 0 0 0 0 0 0 0 0 0 0 0 0 0 0 0 0 0 0 0 0 0 0 0 0 0 0 0
0 0 0 0 0 0 0 0 0 0 0 0 0 0 0 0 0 0 0 0 0 0 0 0 0 0 0 0 0 0 0 0 0 0 0 0 0 0 0 0 0 0 0 0
Wind_Speed
15 15 16 17 19 19 20 21 19 13 6 7 8 8 6 2 0 1 3 6 13 16 14 12 13 13 12 12 9 6 2 3 1 1 1 2 2 1 2 3 5 5 4 6
16 19 19 19 19 20 21 19 16 13 9 6 7 9 6 5 3 5 7 9 11 13 13 13 14 13 12 11 8 6 6 5 4 3 3 2 2 2 4 5 5 5 5 4
21 19 20 21 20 20 16 14 16 17 16 10 9 14 10 10 8 6 6 9 11 11 13 13 14 15 15 14 12 11 10 10 10 8 5 5 5 5 5 4 3 3 3 3
21 20 21 16 17 16 14 15 18 18 17 12 13 13 14 15 12 9 7 9 12 13 15 15 15 15 14 14 14 14 13 12 11 10 10 9 7 5 5 4 2 3 4 5
19 20 20 18 16 15 16 16 18 18 16 17 15 15 10 18 15 12 10 12 14 16 16 15 14 13 13 13 13 12 12 12 11 11 11 9 8 6 5 5 6 5 6 6
21 20 18 18 17 15 16 17 17 14 13 17 18 17 11 16 18 15 13 14 15 16 15 15 14 12 12 12 11 11 10 10 9 9 9 8 7 7 7 6 6 6 5 6
22 21 19 14 15 16 16 13 10 12 13 16 17 17 3 20 23 20 18 16 16 16 15 14 13 12 11 11 10 10 9 8 7 7 7 6 6 7 7 7 7 8 7 6
20 18 20 17 15 14 14 16 14 14 14 13 12 3 9 12 18 19 18 17 16 16 15 14 13 11 10 10 9 8 8 7 7 6 6 5 5 6 7 8 8 9 7 7
20 18 16 20 18 18 17 16 17 17 19 16 4 12 11 12 16 17 18 17 16 16 15 14 12 10 9 8 7 6 6 5 6 6 6 5 7 7 8 7 7 7 7 9
21 20 18 12 16 20 20 16 10 14 15 16 15 12 14 17 17 16 16 16 16 15 14 13 10 8 7 6 6 5 5 5 6 7 7 8 8 8 8 8 8 8 8 8
21 20 21 17 16 17 15 16 16 14 14 16 14 1 12 17 16 15 14 15 16 15 13 11 9 8 6 5 5 5 7 7 8 8 7 7 8 9 9 8 9 8 8 8
13 14 18 22 17 16 17 18 17 13 14 13 11 5 13 16 15 13 14 15 15 14 12 10 8 7 6 6 6 7 8 8 8 8 8 8 8 8 8 9 9 8 8 7
11 8 14 20 19 15 17 17 16 15 12 12 11 7 9 15 16 14 15 15 13 12 10 9 8 6 6 6 7 8 8 8 9 9 9 8 8 8 8 8 8 8 8 8
5 11 15 19 17 15 17 19 18 17 13 13 13 11 12 12 13 13 15 14 12 9 8 7 6 6 6 7 8 8 8 8 8 8 8 7 7 7 7 8 8 8 8 7
8 14 18 21 22 22 15 15 17 20 20 17 8 13 15 11 12 14 14 13 12 9 7 5 5 7 6 7 7 8 7 7 8 8 8 7 7 7 7 7 7 7 7 8
10 14 18 22 24 24 23 16 18 21 21 17 6 16 13 15 14 13 12 11 9 7 6 6 7 7 7 7 7 7 7 7 7 7 8 7 7 7 7 6 6 6 6 7
12 14 19 21 23 23 24 18 16 15 15 9 6 16 17 18 16 14 11 9 7 7 7 8 8 8 7 6 5 6 6 6 6 6 7 7 7 7 7 8 7 7 7 7
14 13 13 19 22 24 10 10 13 5 7 15 20 19 17 17 16 13 10 9 9 9 9 8 7 7 5 4 4 5 6 6 6 6 7 7 7 8 7 7 7 7 6 6
13 12 12 16 21 20 8 4 4 8 12 16 19 18 19 19 17 13 12 11 11 10 8 7 5 5 4 4 4 5 5 5 6 6 6 6 7 8 8 7 7 6 6 5
13 8 7 9 14 14 8 5 3 10 8 13 17 18 17 14 11 11 10 11 11 9 7 5 4 4 3 3 4 5 5 5 6 6 6 6 6 7 8 6 6 6 5 5
13 13 12 12 7 1 2 5 6 6 8 14 16 15 12 11 11 12 12 11 9 8 6 4 4 3 3 2 3 4 5 5 6 6 6 6 5 6 6 4 4 5 5 5
12 13 14 10 5 3 3 7 6 8 14 16 16 17 17 15 14 12 12 10 8 7 6 4 3 2 1 2 3 5 5 6 6 6 7 6 5 7 6 4 4 4 3 5
3 2 2 5 5 7 5 9 11 13 16 16 17 16 14 13 12 11 11 9 8 7 5 3 1 1 0 1 3 5 5 6 7 7 6 6 7 6 5 4 4 3 3 5
1 5 9 10 10 11 11 12 12 15 17 17 16 14 12 12 11 10 9 8 7 5 4 1 1 1 1 1 3 4 5 6 7 7 7 6 6 4 4 3 2 3 6 8
2 3 8 13 13 12 11 13 16 17 17 17 15 14 13 11 10 10 9 8 6 5 3 2 2 1 1 2 3 4 5 6 6 7 6 8 7 5 5 5 7 9 11 10
2 4 7 9 12 12 15 16 17 17 17 16 15 14 12 11 10 10 9 7 6 5 4 3 1 1 2 3 3 5 5 6 6 7 7 8 6 6 6 6 9 15 11 12
Wind_Direction
215 224 229 231 232 241 258 273 287 283 246 204 211 240 241 106 17 322 26 75 100 88 84 79 76 75 82 98 121 172 181 80 66 108 175 163 152 170 126 96 74 59 41 29
229 227 235 242 244 245 248 262 275 280 272 230 232 247 198 140 109 61 71 74 88 100 93 84 82 84 84 92 97 82 61 49 18 37 16 24 33 39 60 59 61 43 29 10
230 238 231 234 246 252 252 262 269 270 268 222 219 244 203 149 129 114 102 93 84 77 85 82 75 71 72 71 67 66 57 49 39 32 26 31 26 22 35 37 45 26 343 316
241 246 251 247 244 248 248 249 256 263 269 250 210 238 204 154 143 137 129 111 99 90 81 77 75 73 73 74 72 68 61 53 45 41 36 37 38 27 17 4 25 346 323 315
244 245 245 244 239 249 256 256 258 256 252 264 247 237 193 152 150 133 120 107 99 95 91 88 85 84 82 79 75 69 63 57 49 45 42 38 31 15 359 350 345 343 331 329
253 254 245 245 241 236 252 256 258 263 254 248 249 254 197 165 146 137 130 119 110 106 104 102 98 93 86 81 77 72 65 59 52 46 40 32 20 357 336 331 332 338 333 325
248 247 253 245 249 235 234 246 242 237 240 248 244 245 162 143 149 153 144 135 128 126 121 117 110 98 87 78 72 67 61 53 47 43 35 20 6 331 330 350 346 336 321 318
245 233 233 225 230 244 224 235 243 245 243 243 245 258 90 123 139 141 140 141 140 133 123 115 108 102 94 81 67 58 52 38 27 23 19 356 353 348 345 348 333 316 315 326
258 259 236 218 210 228 239 223 238 256 266 275 224 127 154 139 138 144 146 147 139 124 119 117 111 102 93 85 72 54 45 31 18 2 0 350 7 355 341 329 317 325 334 324
250 269 279 259 210 213 233 248 242 240 256 265 265 191 161 160 158 155 156 149 132 125 124 117 113 107 102 100 91 64 46 18 15 4 4 356 353 340 332 326 329 328 327 326
233 247 261 261 219 219 220 239 255 263 256 254 260 267 139 167 162 161 159 145 136 134 131 128 126 118 103 78 58 38 24 15 14 6 3 353 344 340 336 334 336 335 328 323
261 240 245 251 247 223 239 237 232 242 255 263 271 123 153 154 150 163 161 144 137 135 134 130 117 100 80 56 38 30 17 13 5 358 354 353 349 347 343 339 335 328 322 320
329 276 245 244 244 227 235 245 240 238 242 249 254 128 140 149 156 162 145 132 125 126 120 111 98 80 60 38 35 22 14 12 358 352 349 349 347 343 337 330 327 323 320 319
293 281 264 252 249 239 225 237 245 247 244 243 245 150 164 156 145 138 126 126 127 128 122 104 90 76 51 40 30 13 11 5 352 347 342 342 340 332 324 320 318 318 319 319
259 265 264 266 268 267 246 239 259 265 261 254 223 144 157 144 133 129 127 131 134 136 128 107 81 63 42 34 22 14 6 358 347 338 335 334 331 321 315 315 318 323 328 336
228 248 262 264 263 264 262 239 230 244 257 264 153 131 146 132 129 130 133 137 139 131 110 84 66 58 46 29 13 6 355 348 338 331 327 330 326 322 325 324 332 337 340 341
266 234 241 252 257 260 255 259 252 237 230 247 138 136 140 134 133 130 129 129 120 99 77 63 56 58 49 35 11 354 342 337 334 333 333 340 341 341 345 343 347 345 344 343
269 259 243 243 244 246 260 301 282 241 110 95 106 129 128 119 111 106 106 102 90 77 64 56 44 48 43 30 9 344 334 335 337 346 350 354 350 345 340 337 342 342 339 338
254 250 248 243 237 233 188 217 247 131 116 118 121 121 117 114 111 101 89 86 82 78 71 65 49 42 37 14 357 336 331 338 347 353 352 354 344 335 328 334 340 335 332 334
240 229 235 255 248 231 187 170 123 114 121 122 121 121 124 135 139 121 106 95 89 82 71 57 40 36 29 13 337 324 325 337 346 342 337 332 329 325 319 334 334 330 328 338
243 222 220 233 238 343 115 126 114 153 140 123 117 116 109 87 92 110 106 96 92 91 81 51 32 24 21 344 320 316 321 338 334 323 314 311 312 304 304 326 318 323 340 343
260 240 225 219 178 157 196 143 127 104 115 117 114 105 101 103 108 111 108 106 100 93 77 40 18 23 18 312 310 314 327 331 319 310 307 306 295 297 306 300 306 323 344 346
302 303 88 65 88 109 95 84 103 111 112 111 108 109 115 118 116 108 104 98 88 78 71 42 15 75 197 266 303 320 327 327 319 314 312 299 290 284 283 291 310 319 347 0
103 76 101 96 98 96 104 115 113 110 108 108 110 114 116 111 107 105 101 94 89 81 82 97 114 120 141 304 311 305 325 328 324 323 316 308 301 304 309 307 328 358 19 21
82 80 96 109 119 121 130 123 115 110 109 108 106 102 101 102 100 99 94 90 89 96 103 114 102 92 7 316 312 340 354 332 332 324 333 331 329 347 332 28 42 58 59 60
75 110 119 133 147 142 132 121 118 114 109 106 102 95 89 90 92 94 97 102 111 121 132 132 129 24 340 327 3 22 2 347 350 343 359 339 343 356 0 44 72 74 95 88